| time (UTC) | temp C | wind direction | speed KPH | gust KPH | rain 1hr cm | rain 24hr cm | rain mn cm | humidity % | barometer mb |
| 20260905203037 | 26 | 73 | 0.0 | 6.4 | 0.00 | 0.30 | 0.03 | 55 | 1010.4 |
| 20260905201537 | 26 | 272 | 0.0 | 8.0 | 0.00 | 0.30 | 0.03 | 54 | 1010.5 |
| 20260905200048 | 26 | 51 | 0.0 | 9.7 | 0.00 | 0.30 | 0.03 | 55 | 1010.7 |
| 20260905194534 | 26 | 330 | 0.0 | 3.2 | 0.00 | 0.30 | 0.03 | 59 | 1010.8 |
| 20260905193029 | 25 | 139 | 1.6 | 6.4 | 0.00 | 0.30 | 0.03 | 57 | 1010.9 |
| 20260905191526 | 26 | 319 | 1.6 | 8.0 | 0.00 | 0.30 | 0.03 | 53 | 1011.1 |
| 20260905190025 | 25 | 72 | 1.6 | 8.0 | 0.00 | 0.30 | 0.03 | 60 | 1011.1 |
| 20260905184502 | 25 | 126 | 0.0 | 6.4 | 0.00 | 0.30 | 0.03 | 57 | 1011.2 |
| 20260905183016 | 25 | 229 | 0.0 | 6.4 | 0.00 | 0.30 | 0.03 | 61 | 1011.2 |
| 20260905181516 | 25 | 240 | 0.0 | 3.2 | 0.00 | 0.30 | 0.03 | 58 | 1011.3 |
| 20260905180010 | 25 | 351 | 0.0 | 3.2 | 0.00 | 0.30 | 0.03 | 61 | 1011.4 |
| 20260905174508 | 25 | 101 | 1.6 | 6.4 | 0.00 | 0.30 | 0.03 | 59 | 1011.6 |
| 20260905173009 | 26 | 310 | 1.6 | 6.4 | 0.00 | 0.30 | 0.03 | 60 | 1011.7 |
| 20260905171511 | 25 | 229 | 3.2 | 8.0 | 0.00 | 0.30 | 0.03 | 56 | 1011.6 |
| 20260905170003 | 25 | 260 | 3.2 | 8.0 | 0.00 | 0.30 | 0.03 | 58 | 1011.7 |
| 20260905164503 | 25 | 264 | 1.6 | 6.4 | 0.00 | 0.30 | 0.03 | 67 | 1011.7 |
| 20260905163025 | 25 | 360 | 1.6 | 3.2 | 0.00 | 0.30 | 0.03 | 61 | 1012.0 |
| 20260905161521 | 25 | 64 | 0.0 | 6.4 | 0.00 | 0.30 | 0.03 | 61 | 1012.1 |
| 20260905160027 | 24 | 219 | 0.0 | 6.4 | 0.00 | 0.30 | 0.03 | 68 | 1012.2 |
| 20260905154548 | 23 | 186 | 0.0 | 12.9 | 0.00 | 0.30 | 0.03 | 69 | 1012.2 |
| 20260905153012 | 24 | 243 | 0.0 | 9.7 | 0.00 | 0.30 | 0.03 | 69 | 1012.3 |
| 20260905151505 | 23 | 127 | 1.6 | 4.8 | 0.00 | 0.30 | 0.03 | 71 | 1012.3 |
| 20260905150006 | 23 | 228 | 0.0 | 6.4 | 0.00 | 0.30 | 0.03 | 74 | 1012.4 |
| 20260905144504 | 22 | 283 | 0.0 | 4.8 | 0.00 | 0.30 | 0.03 | 76 | 1012.2 |
| 20260905143025 | 22 | 65 | 0.0 | 8.0 | 0.00 | 0.30 | 0.03 | 77 | 1012.2 |
| 20260905141524 | 22 | 318 | 0.0 | 3.2 | 0.00 | 0.30 | 0.03 | 81 | 1012.2 |
| 20260905140024 | 21 | 213 | 0.0 | 4.8 | 0.00 | 0.30 | 0.03 | 83 | 1012.1 |
| 20260905134516 | 21 | 267 | 0.0 | 6.4 | 0.00 | 0.30 | 0.03 | 86 | 1012.0 |
| 20260905133010 | 21 | 269 | 0.0 | 4.8 | 0.00 | 0.30 | 0.03 | 87 | 1011.9 |
| 20260905131510 | 20 | 79 | 0.0 | 3.2 | 0.00 | 0.30 | 0.03 | 91 | 1011.7 |
| 20260905130012 | 20 | 79 | 0.0 | 1.6 | 0.00 | 0.30 | 0.03 | 94 | 1011.8 |
| 20260905124540 | 20 | 79 | 0.0 | 1.6 | 0.00 | 0.30 | 0.03 | 95 | 1012.0 |
| 20260905123028 | 19 | 79 | 0.0 | 3.2 | 0.00 | 0.30 | 0.03 | 95 | 1012.0 |
| 20260905121524 | 19 | 53 | 0.0 | 3.2 | 0.00 | 0.30 | 0.03 | 96 | 1011.9 |
| 20260905120027 | 19 | 250 | 0.0 | 3.2 | 0.00 | 0.30 | 0.03 | 96 | 1012.0 |
| 20260905114517 | 20 | 101 | 0.0 | 3.2 | 0.00 | 0.30 | 0.03 | 96 | 1011.9 |
| 20260905113014 | 20 | 101 | 0.0 | 3.2 | 0.00 | 0.30 | 0.03 | 96 | 1011.5 |
| 20260905111514 | 20 | 46 | 0.0 | 1.6 | 0.00 | 0.30 | 0.03 | 96 | 1011.4 |
| 20260905110031 | 20 | 46 | 0.0 | 0.0 | 0.00 | 0.30 | 0.03 | 96 | 1011.2 |
| 20260905104541 | 20 | 46 | 0.0 | 3.2 | 0.00 | 0.30 | 0.03 | 96 | 1011.1 |
| 20260905103033 | 20 | 46 | 0.0 | 0.0 | 0.00 | 0.30 | 0.03 | 96 | 1011.0 |
| 20260905101526 | 20 | 46 | 0.0 | 0.0 | 0.00 | 0.30 | 0.03 | 96 | 1010.9 |
| 20260905100029 | 20 | 46 | 0.0 | 0.0 | 0.00 | 0.30 | 0.03 | 96 | 1010.8 |
| 20260905094504 | 20 | 46 | 0.0 | 0.0 | 0.00 | 0.30 | 0.03 | 96 | 1010.8 |
| 20260905093003 | 20 | 46 | 0.0 | 3.2 | 0.00 | 0.30 | 0.03 | 96 | 1010.8 |
| 20260905091502 | 20 | 46 | 0.0 | 0.0 | 0.00 | 0.30 | 0.03 | 96 | 1010.9 |
| 20260905090003 | 20 | 46 | 0.0 | 0.0 | 0.00 | 0.30 | 0.03 | 96 | 1010.9 |
| 20260905084506 | 21 | 46 | 0.0 | 0.0 | 0.00 | 0.30 | 0.03 | 96 | 1010.8 |
| 20260905083004 | 21 | 46 | 0.0 | 0.0 | 0.00 | 0.30 | 0.03 | 96 | 1010.7 |
| 20260905081504 | 21 | 46 | 0.0 | 0.0 | 0.00 | 0.33 | 0.03 | 96 | 1010.8 |
| 20260905080003 | 21 | 46 | 0.0 | 0.0 | 0.00 | 0.33 | 0.03 | 96 | 1010.8 |
| 20260905074504 | 21 | 46 | 0.0 | 0.0 | 0.00 | 0.33 | 0.03 | 96 | 1010.8 |
| 20260905073010 | 21 | 46 | 0.0 | 0.0 | 0.00 | 0.33 | 0.03 | 95 | 1010.7 |
| 20260905071504 | 21 | 46 | 0.0 | 0.0 | 0.00 | 0.33 | 0.03 | 95 | 1010.8 |
| 20260905070005 | 21 | 46 | 0.0 | 0.0 | 0.00 | 0.33 | 0.03 | 95 | 1011.0 |
| 20260905064510 | 21 | 46 | 0.0 | 0.0 | 0.00 | 0.33 | 0.03 | 95 | 1011.0 |
| 20260905063004 | 21 | 46 | 0.0 | 0.0 | 0.00 | 0.33 | 0.03 | 95 | 1010.9 |
| 20260905061505 | 21 | 46 | 0.0 | 0.0 | 0.00 | 0.33 | 0.03 | 95 | 1011.1 |
| 20260905060006 | 21 | 46 | 0.0 | 0.0 | 0.00 | 0.33 | 0.03 | 95 | 1011.2 |
| 20260905054506 | 21 | 46 | 0.0 | 0.0 | 0.00 | 0.33 | 0.03 | 95 | 1011.2 |
| 20260905053018 | 21 | 46 | 0.0 | 0.0 | 0.00 | 0.33 | 0.03 | 94 | 1011.3 |
| 20260905051507 | 21 | 46 | 0.0 | 0.0 | 0.00 | 0.33 | 0.03 | 94 | 1011.5 |
| 20260905050011 | 21 | 46 | 0.0 | 0.0 | 0.03 | 0.33 | 0.03 | 94 | 1011.4 |
| 20260905044515 | 21 | 46 | 0.0 | 0.0 | 0.05 | 0.33 | 0.03 | 93 | 1011.6 |
| 20260905043008 | 22 | 46 | 0.0 | 3.2 | 0.30 | 0.36 | 0.03 | 93 | 1011.8 |
| 20260905041510 | 23 | 359 | 0.0 | 3.2 | 0.30 | 0.58 | 0.03 | 93 | 1011.7 |
| 20260905040012 | 23 | 359 | 0.0 | 0.0 | 0.28 | 0.79 | 0.00 | 92 | 1011.7 |
| 20260905034511 | 23 | 185 | 0.0 | 3.2 | 0.25 | 0.76 | 0.76 | 91 | 1011.6 |
| 20260905033016 | 23 | 222 | 0.0 | 0.0 | 0.00 | 0.51 | 0.51 | 90 | 1011.7 |
| 20260905031508 | 23 | 222 | 0.0 | 0.0 | 0.00 | 0.51 | 0.51 | 90 | 1011.5 |
| 20260905030012 | 23 | 222 | 0.0 | 0.0 | 0.00 | 0.51 | 0.51 | 90 | 1011.5 |
| 20260905024512 | 23 | 222 | 0.0 | 0.0 | 0.00 | 0.51 | 0.51 | 89 | 1011.4 |
| 20260905023009 | 23 | 222 | 0.0 | 0.0 | 0.00 | 0.51 | 0.51 | 88 | 1011.4 |
| 20260905021510 | 23 | 222 | 0.0 | 0.0 | 0.00 | 0.51 | 0.51 | 88 | 1011.5 |
| 20260905020010 | 23 | 222 | 0.0 | 0.0 | 0.00 | 0.51 | 0.51 | 88 | 1011.4 |
| 20260905014507 | 23 | 222 | 0.0 | 0.0 | 0.00 | 0.51 | 0.51 | 88 | 1011.3 |
| 20260905013004 | 23 | 222 | 0.0 | 0.0 | 0.00 | 0.51 | 0.51 | 88 | 1011.4 |
| 20260905011502 | 24 | 222 | 0.0 | 0.0 | 0.00 | 0.51 | 0.51 | 87 | 1011.4 |
| 20260905010004 | 24 | 222 | 0.0 | 0.0 | 0.00 | 0.51 | 0.51 | 87 | 1011.5 |
| 20260905004507 | 24 | 222 | 0.0 | 0.0 | 0.00 | 0.51 | 0.51 | 86 | 1011.5 |
| 20260905003021 | 24 | 222 | 0.0 | 0.0 | 0.00 | 0.51 | 0.51 | 86 | 1011.3 |
| 20260905001516 | 24 | 222 | 0.0 | 0.0 | 0.00 | 0.51 | 0.51 | 85 | 1011.0 |
| 20260905000026 | 25 | 222 | 0.0 | 0.0 | 0.00 | 0.51 | 0.51 | 84 | 1011.1 |
| 20260904234509 | 25 | 222 | 0.0 | 0.0 | 0.00 | 0.51 | 0.51 | 83 | 1010.9 |
| 20260904233005 | 25 | 222 | 0.0 | 0.0 | 0.00 | 0.51 | 0.51 | 81 | 1011.0 |
| 20260904231506 | 25 | 222 | 0.0 | 0.0 | 0.00 | 0.51 | 0.51 | 80 | 1011.1 |
| 20260904230006 | 26 | 222 | 0.0 | 0.0 | 0.00 | 0.51 | 0.51 | 79 | 1011.2 |
| 20260904224527 | 26 | 222 | 0.0 | 3.2 | 0.00 | 0.51 | 0.51 | 77 | 1011.4 |
| 20260904223021 | 27 | 188 | 0.0 | 3.2 | 0.00 | 0.51 | 0.51 | 74 | 1011.2 |
| 20260904221521 | 27 | 285 | 0.0 | 3.2 | 0.00 | 0.51 | 0.51 | 74 | 1011.2 |
| 20260904220024 | 27 | 231 | 0.0 | 3.2 | 0.00 | 0.51 | 0.51 | 74 | 1011.5 |
| 20260904214515 | 27 | 279 | 0.0 | 3.2 | 0.00 | 0.51 | 0.51 | 73 | 1011.6 |
| 20260904213009 | 27 | 324 | 0.0 | 6.4 | 0.00 | 0.51 | 0.51 | 70 | 1011.8 |
| 20260904211510 | 27 | 290 | 0.0 | 4.8 | 0.00 | 0.51 | 0.51 | 70 | 1011.7 |
| 20260904210006 | 27 | 77 | 0.0 | 3.2 | 0.00 | 0.51 | 0.51 | 70 | 1011.3 |
| 20260904204526 | 28 | 141 | 0.0 | 4.8 | 0.00 | 0.51 | 0.51 | 65 | 1011.3 |